Regional Weather Roundup
Issued by NWS

Home | Current Version | Previous Version | Graphics & Text | Print | Product List | Glossary Off
Versions: 1 2 3 4 5 6 7 8 9 10 11 12 13 14 15 16 17 18 19 20 21 22 23 24 25 26 27 28 29 30 31 32 33 34 35 36 37 38 39 40 41 42 43 44 45 46 47 48 49 50

000
ASUS43 KLSX 010207
RWRMO

WEATHER SUMMARY FOR MISSOURI
NATIONAL WEATHER SERVICE SPRINGFIELD MO
800 PM CST SAT JAN 31 2015

NOTE: "FAIR" INDICATES FEW OR NO CLOUDS BELOW 12,000 FEET WITH NO
       SIGNIFICANT WEATHER AND/OR OBSTRUCTIONS TO VISIBILITY.
       CURRENT SKY AND/OR WEATHER CONDITIONS ARE NOT AVAILABLE FOR
       CHILLICOTHE AND FARMINGTON.

MOZ001>031-035>038-043-044-053-054-010300-
...NORTHERN AND WESTERN MISSOURI...

CITY           SKY/WX    TMP DP  RH WIND       PRES   REMARKS
KANSAS CTY INT LGT RAIN  34  34 100 SE13      29.96F FOG     WCI  25
KANSAS C DTWN  LGT RAIN  37  34  89 E7        29.97F
LEE`S SUMMIT   LGT RAIN  35  34  96 E7        29.97F FOG     WCI  29
ST JOSEPH      LGT SNOW  33  32  96 SE9       29.97F FOG     WCI  25
CHILLICOTHE      N/A     34  33  96 SE5       30.03F WCI  30
KIRKSVILLE     LGT SNOW  33  33 100 SE9       30.06F VSB 3/4 WCI  25

$$
MOZ066>068-077>081-088>096-101>105-010300-
...SOUTHWEST MISSOURI...

CITY           SKY/WX    TMP DP  RH WIND       PRES   REMARKS
SPRINGFIELD    CLOUDY    43  23  45 SE22G29   29.95F
JOPLIN         LGT RAIN  42  35  76 VRB3      29.95F

$$
MOZ032>034-039>042-045>050-055>058-069>072-010300-
...CENTRAL MISSOURI...

CITY           SKY/WX    TMP DP  RH WIND       PRES   REMARKS
COLUMBIA       LGT RAIN  37  35  92 SE8       30.04F
JEFFERSON CITY CLOUDY    37  34  89 SE6       30.06F
ROLLA          CLOUDY    38  22  52 SE12      30.04F
SEDALIA        CLOUDY    38  33  82 SE12      30.01F
WHITEMAN AFB   LGT RAIN  37  33  87 SE3       29.98F
WARRENSBURG    DRIZZLE   36  34  93 E6        29.99F
OSAGE BEACH    CLOUDY    39  25  56 SE8       30.02F

$$
MOZ051-052-059>065-010300-
...EAST CENTRAL MISSOURI...

CITY           SKY/WX    TMP DP  RH WIND       PRES   REMARKS
ST LOUIS INTL  CLOUDY    42  27  55 CALM      30.14F
SPIRIT OF STL  CLOUDY    42  26  53 SE6       30.11F
ST CHARLES     CLOUDY    38  33  82 E10       30.13F

$$
MOZ072>076-082>087-097>100-106>115-010300-
...SOUTH CENTRAL AND SOUTHEAST MISSOURI...

CITY           SKY/WX    TMP DP  RH WIND       PRES   REMARKS
CAPE GIRARDEAU CLOUDY    40  27  59 SE9       30.16F
FARMINGTON     CLOUDY    37  21  52 S6        30.16F
POPLAR BLUFF   CLOUDY    39  30  70 E5        30.15F
WEST PLAINS    CLOUDY    40  22  48 SE10      30.09F

$$



USA.gov is the U.S. government's official web portal to all federal, state and local government web resources and services.